Hourly Data Report for December 19, 2011

HALIFAX STANFIELD INT'L A
NOVA SCOTIA

44°52'48.060" N
63°30'00.050" W
145.40 m
8202250
71395
YHZ

Download Data

Hourly Data (December 2011)
Hourly Data Report for December 19, 2011
TIME
LST
Temp Definition
°C
Dew Point Definition
°C
Rel Hum Definition
%
Precip. Amount Definition
mm

Wind Dir Definition
10's deg

Wind Spd Definition
km/h
Visibility Definition
km
Stn Press Definition
kPa
Hmdx Definition


Wind Chill Definition


Weather Definition


00:00 -4.6 -6.8 85   36 20 24.1 100.16   -11 Snow Showers
01:00 -4.6 -6.3 88   35 13 24.1 100.15   -10 Snow Showers
02:00 -4.8 -6.9 85   35 15 24.1 100.14   -10 Snow Showers
03:00 -5.4 -8.1 81   35 24 24.1 100.13   -13 Snow Showers
04:00 -6.7 -9.4 81   35 15 24.1 100.16   -13 Mainly Clear
05:00 -7.3 -9.7 83   34 17 24.1 100.15   -14 Clear
06:00 -7.7 -9.5 87   33 15 24.1 100.17   -14 Clear
07:00 -8.2 -10.1 86   33 11 24.1 100.20   -13 Clear
08:00 -8.3 -10.3 85   32 13 24.1 100.19   -14 Mainly Clear
09:00 -7.4 -10.0 82   34 11 24.1 100.23   -12 Mainly Clear
10:00 -5.9 -9.6 75   35 9 24.1 100.23   -10 Mainly Clear
11:00 -4.6 -9.7 67   31 9 24.1 100.22   -8 Mainly Clear
12:00 -3.8 -11.0 57   33 6 24.1 100.10   -6 Mainly Clear
13:00 -3.6 -11.4 55   13 4 24.1 99.96   -5 Mainly Clear
14:00 -2.6 -13.8 42     0 24.1 99.86     Mainly Clear
15:00 -2.2 -12.4 45   20 15 24.1 99.79   -7 Mainly Clear
16:00 -3.4 -12.0 51   20 13 24.1 99.72   -8 Mainly Clear
17:00 -4.3 -10.8 60   19 13 24.1 99.65   -9 Mainly Clear
18:00 -4.1 -8.5 71   19 20 24.1 99.53   -10 Cloudy
19:00 -3.3 -7.1 75   18 15 24.1 99.46   -8 Cloudy
20:00 -2.3 -5.8 77   21 17 24.1 99.41   -8 Cloudy
21:00 -0.8 -4.8 74   21 26 24.1 99.26   -7 Cloudy
22:00 0.2 -3.3 77   19 24 24.1 99.12     Cloudy
23:00 1.3 -1.4 82   18 22 24.1 98.90     Snow Showers

Notes on Data Quality.

Legend

  • E = Estimated
  • M = Missing
  • NA = Not Available*
  • [empty] = Indicates an unobserved value
Date modified: